Location: Dos Palmas
(32.4468°N, 116.8732°W)
Time: 01:37:30
(UTC+00:00)

Meteor 1-24 Rocket - Pass Details

Date: 31 October 2021
Orbit: 790 x 927 km, 81.3° (Epoch: 07 December)

Event Time Altitude Azimuth Distance (km) Brightness Sun altitude
Rises 13:07:45 0° 215° (SW) 3,288 6.5 -12.5°
Reaches altitude 10° 13:10:25 10° 227° (SW) 2,374 5.7 -11.9°
Maximum altitude 13:14:56 27° 285° (WNW) 1,511 4.5 -11.0°
Drops below altitude 10° 13:19:36 10° 343° (NNW) 2,448 5.8 -10.0°
Sets 13:22:25 0° 355° (N) 3,410 6.7 -9.4°
